Location: T�bingen+AIT
(48.5342°N, 9.0700°E)
Time: 20:28:58
(UTC+02:00)

Tiangong 2 - Pass Details

Date: 14 September 2017
Orbit: 389 x 393 km, 42.8° (Epoch: 20 September)

Event Time Altitude Azimuth Distance (km) Brightness Sun altitude
Rises 20:32:55 0° 259° (W) 2,278 6.2 -9.7°
Reaches altitude 10° 20:35:10 10° 247° (WSW) 1,421 4.7 -10.1°
Maximum altitude 20:37:57 27° 187° (S) 788 2.5 -10.5°
Enters shadow 20:39:59 15° 135° (SE) 1,175 3.0 -10.8°
